SHT22A EGLL-EGJB

Flight info

Callsign SHT22A
Flight time 0h 34m
Altitude 18000
Route GASGU N514 EVTES N621 SAM N63 LELNA
Aircraft A319/M-SDE3FGHIRWY/LB1

Departure

Time 2026-05-06 11:24
Airport London Heathrow Airport (EGLL)

Arrival

Time 2026-05-06 11:58
Airport Guernsey Airport (EGJB)
Time Latitude Longitude Altitude Speed Heading
2026-05-06 10:48 51.47271 -0.48591 87 ft 0 kts 270°
2026-05-06 11:12 51.47271 -0.48569 90 ft 4 kts 269°
2026-05-06 11:12 51.47272 -0.48525 89 ft 4 kts 261°
2026-05-06 11:13 51.47279 -0.48486 91 ft 4 kts 221°
2026-05-06 11:13 51.47289 -0.48476 91 ft 0 kts 180°
2026-05-06 11:16 51.47282 -0.48476 91 ft 3 kts 180°
2026-05-06 11:16 51.47254 -0.48476 89 ft 5 kts 180°
2026-05-06 11:17 51.47207 -0.48475 87 ft 8 kts 179°
2026-05-06 11:17 51.47143 -0.48475 87 ft 10 kts 179°
2026-05-06 11:17 51.47066 -0.48474 87 ft 12 kts 180°
2026-05-06 11:17 51.46971 -0.48473 87 ft 15 kts 179°
2026-05-06 11:18 51.46863 -0.48472 87 ft 12 kts 180°
2026-05-06 11:18 51.46821 -0.48472 87 ft 0 kts 179°
2026-05-06 11:19 51.46810 -0.48472 87 ft 5 kts 180°
2026-05-06 11:19 51.46753 -0.48471 87 ft 11 kts 180°
2026-05-06 11:19 51.46655 -0.48470 87 ft 16 kts 179°
2026-05-06 11:20 51.46599 -0.48470 88 ft 4 kts 179°
2026-05-06 11:20 51.46586 -0.48470 88 ft 0 kts 180°
2026-05-06 11:21 51.46579 -0.48470 88 ft 3 kts 180°
2026-05-06 11:22 51.46538 -0.48470 89 ft 7 kts 180°
2026-05-06 11:22 51.46482 -0.48453 90 ft 9 kts 136°
2026-05-06 11:22 51.46477 -0.48402 89 ft 0 kts 90°
2026-05-06 11:23 51.46478 -0.48240 89 ft 41 kts 90°
2026-05-06 11:23 51.46480 -0.47460 86 ft 98 kts 90°
2026-05-06 11:24 51.46485 -0.46077 90 ft 149 kts 90°
2026-05-06 11:24 51.46481 -0.44365 592 ft 155 kts 85°
2026-05-06 11:24 51.46496 -0.42618 1275 ft 158 kts 85°
2026-05-06 11:24 51.46122 -0.40844 1697 ft 187 kts 124°
2026-05-06 11:25 51.45250 -0.39101 2067 ft 212 kts 122°
2026-05-06 11:25 51.44394 -0.37010 2590 ft 237 kts 119°
2026-05-06 11:25 51.43430 -0.34702 3135 ft 261 kts 129°
2026-05-06 11:25 51.41934 -0.33014 3570 ft 270 kts 157°
2026-05-06 11:26 51.40073 -0.32593 4007 ft 274 kts 186°
2026-05-06 11:26 51.38353 -0.33502 4419 ft 276 kts 212°
2026-05-06 11:26 51.36874 -0.35466 4862 ft 277 kts 224°
2026-05-06 11:26 51.35444 -0.37553 5297 ft 279 kts 223°
2026-05-06 11:27 51.33969 -0.39590 5901 ft 283 kts 221°
2026-05-06 11:27 51.32449 -0.41587 6933 ft 283 kts 220°
2026-05-06 11:27 51.30907 -0.43582 7920 ft 286 kts 221°
2026-05-06 11:27 51.29353 -0.45587 8863 ft 289 kts 220°
2026-05-06 11:28 51.27779 -0.47618 9827 ft 292 kts 220°
2026-05-06 11:28 51.26174 -0.49694 10419 ft 307 kts 220°
2026-05-06 11:28 51.24452 -0.51930 10715 ft 330 kts 220°
2026-05-06 11:28 51.22624 -0.54309 11151 ft 345 kts 220°
2026-05-06 11:29 51.20746 -0.56755 11854 ft 351 kts 220°
2026-05-06 11:29 51.18840 -0.59235 12606 ft 355 kts 220°
2026-05-06 11:29 51.16916 -0.61732 13360 ft 359 kts 220°
2026-05-06 11:29 51.14991 -0.64224 14063 ft 363 kts 220°
2026-05-06 11:30 51.13028 -0.66765 14733 ft 365 kts 220°
2026-05-06 11:30 51.11046 -0.69332 15413 ft 368 kts 220°
2026-05-06 11:30 51.09054 -0.71910 16105 ft 371 kts 220°
2026-05-06 11:30 51.07044 -0.74505 16795 ft 373 kts 220°
2026-05-06 11:31 51.05023 -0.77113 17493 ft 376 kts 220°
2026-05-06 11:31 51.02989 -0.79729 17898 ft 377 kts 219°
2026-05-06 11:31 51.00934 -0.82371 17988 ft 386 kts 220°
2026-05-06 11:31 50.98827 -0.85078 17994 ft 392 kts 219°
2026-05-06 11:32 50.96701 -0.87804 17995 ft 393 kts 219°
2026-05-06 11:32 50.94573 -0.90531 17990 ft 393 kts 219°
2026-05-06 11:32 50.92443 -0.93258 17994 ft 394 kts 219°
2026-05-06 11:32 50.90310 -0.95985 17997 ft 394 kts 219°
2026-05-06 11:33 50.88179 -0.98712 17995 ft 394 kts 219°
2026-05-06 11:33 50.86045 -1.01438 17997 ft 394 kts 219°
2026-05-06 11:33 50.84629 -1.03246 18000 ft 394 kts 219°
2026-05-06 11:33 50.82494 -1.05969 17992 ft 394 kts 219°
2026-05-06 11:34 50.80357 -1.08685 17995 ft 394 kts 219°
2026-05-06 11:34 50.78215 -1.11398 17997 ft 394 kts 219°
2026-05-06 11:34 50.76074 -1.14107 18001 ft 394 kts 219°
2026-05-06 11:34 50.73932 -1.16819 17996 ft 394 kts 219°
2026-05-06 11:35 50.71795 -1.19527 18000 ft 394 kts 219°
2026-05-06 11:35 50.69653 -1.22240 17997 ft 394 kts 219°
2026-05-06 11:35 50.67508 -1.24947 17995 ft 395 kts 219°
2026-05-06 11:35 50.65368 -1.27641 17997 ft 394 kts 219°
2026-05-06 11:36 50.63222 -1.30337 17995 ft 394 kts 219°
2026-05-06 11:36 50.61073 -1.33038 17997 ft 394 kts 219°
2026-05-06 11:36 50.58953 -1.35700 17997 ft 394 kts 219°
2026-05-06 11:36 50.56807 -1.38389 17993 ft 394 kts 219°
2026-05-06 11:37 50.54666 -1.41066 17997 ft 394 kts 219°
2026-05-06 11:37 50.52517 -1.43755 17997 ft 394 kts 219°
2026-05-06 11:37 50.50369 -1.46436 18003 ft 394 kts 219°
2026-05-06 11:37 50.48226 -1.49111 18007 ft 394 kts 219°
2026-05-06 11:38 50.46081 -1.51793 18007 ft 394 kts 219°
2026-05-06 11:38 50.43938 -1.54473 18004 ft 394 kts 219°
2026-05-06 11:38 50.41790 -1.57149 18007 ft 394 kts 219°
2026-05-06 11:38 50.39646 -1.59814 18006 ft 394 kts 219°
2026-05-06 11:39 50.37498 -1.62481 18008 ft 394 kts 219°
2026-05-06 11:39 50.35347 -1.65147 18006 ft 394 kts 219°
2026-05-06 11:39 50.33202 -1.67805 18010 ft 394 kts 219°
2026-05-06 11:39 50.31050 -1.70466 18008 ft 394 kts 219°
2026-05-06 11:40 50.28902 -1.73116 18006 ft 394 kts 219°
2026-05-06 11:40 50.26749 -1.75769 18008 ft 394 kts 219°
2026-05-06 11:40 50.24597 -1.78418 18009 ft 394 kts 219°
2026-05-06 11:40 50.22445 -1.81062 18010 ft 394 kts 219°
2026-05-06 11:41 50.20318 -1.83673 18007 ft 393 kts 219°
2026-05-06 11:41 50.18166 -1.86314 18017 ft 393 kts 219°
2026-05-06 11:41 50.15989 -1.88992 18015 ft 394 kts 219°
2026-05-06 11:41 50.13841 -1.91637 18012 ft 393 kts 219°
2026-05-06 11:42 50.11720 -1.94237 18013 ft 393 kts 219°
2026-05-06 11:42 50.09574 -1.96861 17899 ft 387 kts 219°
2026-05-06 11:42 50.07484 -1.99411 17629 ft 378 kts 219°
2026-05-06 11:42 50.05423 -2.01920 17362 ft 374 kts 219°
2026-05-06 11:43 50.03377 -2.04406 17094 ft 373 kts 219°
2026-05-06 11:43 50.01336 -2.06882 16825 ft 371 kts 219°
2026-05-06 11:43 49.99309 -2.09345 16563 ft 369 kts 219°
2026-05-06 11:44 49.95793 -2.14942 15581 ft 358 kts 230°
2026-05-06 11:44 49.94155 -2.17822 15056 ft 355 kts 230°
2026-05-06 11:44 49.92527 -2.20670 14538 ft 351 kts 230°
2026-05-06 11:44 49.90906 -2.23501 14017 ft 349 kts 230°
2026-05-06 11:45 49.89294 -2.26314 13459 ft 347 kts 230°
2026-05-06 11:45 49.87697 -2.29093 12931 ft 344 kts 229°
2026-05-06 11:45 49.86118 -2.31846 12417 ft 339 kts 230°
2026-05-06 11:45 49.84555 -2.34567 11904 ft 336 kts 230°
2026-05-06 11:46 49.83008 -2.37255 11401 ft 333 kts 230°
2026-05-06 11:46 49.81492 -2.39888 10893 ft 322 kts 230°
2026-05-06 11:46 49.80032 -2.42418 10559 ft 306 kts 229°
2026-05-06 11:46 49.78651 -2.44805 10228 ft 293 kts 229°
2026-05-06 11:47 49.77325 -2.47092 9946 ft 287 kts 229°
2026-05-06 11:47 49.75997 -2.49385 9806 ft 286 kts 229°
2026-05-06 11:47 49.74668 -2.51680 9692 ft 287 kts 229°
2026-05-06 11:47 49.73339 -2.53973 9548 ft 286 kts 229°
2026-05-06 11:48 49.72015 -2.56254 9416 ft 285 kts 229°
2026-05-06 11:48 49.70683 -2.58551 8949 ft 289 kts 229°
2026-05-06 11:48 49.69326 -2.60810 8632 ft 285 kts 225°
2026-05-06 11:48 49.67872 -2.62872 8046 ft 283 kts 221°
2026-05-06 11:49 49.66365 -2.64817 7450 ft 282 kts 220°
2026-05-06 11:49 49.64848 -2.66713 6868 ft 280 kts 219°
2026-05-06 11:49 49.63337 -2.68601 6293 ft 278 kts 219°
2026-05-06 11:49 49.61852 -2.70490 5734 ft 275 kts 222°
2026-05-06 11:50 49.60485 -2.72511 5350 ft 271 kts 225°
2026-05-06 11:50 49.59149 -2.74557 5041 ft 271 kts 225°
2026-05-06 11:50 49.57822 -2.76588 4741 ft 267 kts 225°
2026-05-06 11:50 49.56507 -2.78598 4424 ft 265 kts 225°
2026-05-06 11:51 49.55206 -2.80593 4107 ft 263 kts 225°
2026-05-06 11:51 49.53930 -2.82550 3797 ft 261 kts 225°
2026-05-06 11:51 49.52653 -2.84514 3507 ft 258 kts 225°
2026-05-06 11:51 49.51398 -2.86450 3250 ft 252 kts 226°
2026-05-06 11:52 49.50182 -2.88331 3015 ft 243 kts 225°
2026-05-06 11:52 49.49015 -2.90143 2781 ft 235 kts 225°
2026-05-06 11:52 49.47872 -2.91922 2555 ft 232 kts 225°
2026-05-06 11:52 49.46691 -2.93595 2316 ft 231 kts 212°
2026-05-06 11:53 49.45204 -2.94439 2104 ft 227 kts 184°
2026-05-06 11:53 49.43686 -2.94149 2003 ft 217 kts 157°
2026-05-06 11:53 49.42532 -2.92838 2003 ft 204 kts 122°
2026-05-06 11:53 49.42112 -2.90808 2009 ft 201 kts 92°
2026-05-06 11:54 49.42238 -2.88686 2002 ft 196 kts 80°
2026-05-06 11:54 49.42441 -2.86680 1998 ft 186 kts 80°
2026-05-06 11:54 49.42635 -2.84739 2005 ft 182 kts 80°
2026-05-06 11:54 49.42828 -2.82816 2007 ft 182 kts 80°
2026-05-06 11:55 49.43002 -2.80917 2003 ft 182 kts 85°
2026-05-06 11:55 49.43030 -2.78985 2055 ft 181 kts 89°
2026-05-06 11:55 49.43039 -2.77049 2011 ft 180 kts 88°
2026-05-06 11:55 49.43078 -2.75145 1990 ft 172 kts 87°
2026-05-06 11:56 49.43124 -2.73358 1863 ft 164 kts 86°
2026-05-06 11:56 49.43172 -2.71636 1673 ft 160 kts 86°
2026-05-06 11:56 49.43220 -2.69943 1468 ft 158 kts 86°
2026-05-06 11:56 49.43267 -2.68294 1256 ft 146 kts 87°
2026-05-06 11:57 49.43308 -2.66820 1055 ft 133 kts 87°
2026-05-06 11:57 49.43347 -2.65437 869 ft 128 kts 87°
2026-05-06 11:57 49.43385 -2.64077 694 ft 127 kts 86°
2026-05-06 11:57 49.43421 -2.62742 503 ft 125 kts 86°
2026-05-06 11:58 49.43461 -2.61422 336 ft 123 kts 86°
2026-05-06 11:58 49.43494 -2.60299 336 ft 73 kts 87°
2026-05-06 11:58 49.43512 -2.59660 351 ft 40 kts 88°
2026-05-06 11:58 49.43521 -2.59342 348 ft 25 kts 87°
2026-05-06 11:59 49.43462 -2.59198 345 ft 9 kts 178°
2026-05-06 11:59 49.43389 -2.59214 345 ft 12 kts 219°
2026-05-06 11:59 49.43371 -2.59339 345 ft 12 kts 267°
2026-05-06 11:59 49.43367 -2.59480 355 ft 14 kts 266°
2026-05-06 12:00 49.43363 -2.59614 345 ft 8 kts 267°
2026-05-06 12:00 49.43362 -2.59653 345 ft 3 kts 268°
2026-05-06 12:00 49.43352 -2.59689 352 ft 4 kts 201°
2026-05-06 12:00 49.43315 -2.59691 344 ft 7 kts 177°
2026-05-06 12:01 49.43269 -2.59688 344 ft 7 kts 178°
2026-05-06 12:01 49.43261 -2.59688 344 ft 0 kts 178°